Погода во Флагстаффе

США     35°11′54″N   111°36′39″W
темп.,
°C
ветер,
м/с
пор.,
м/с
влажн.,
%
обл.,
%
осадки,
мм/ч
давл.,
гПа
погр.,
м
27 июля, вт
вт2723:00+16з34824 0.2 101972
02:00+16з2281100 0.0 101830
05:00+15з22835 0.0 101919
08:00+19ссз11705 0.1 1019458
11:00+23ю124829 0.4 10181831
14:00+25зюз443897 0.3 10162424
17:00+25з443995 0.3 10151757
20:00+21зюз225390 0.0 101824
28 июля, ср
ср2823:00+19юз2357100 0.0 102047
02:00+18з456141 0.0 102076
05:00+17з326178 0.0 102024
08:00+20ссз115285 0.0 1020137
11:00+25с223844 0.0 10191998
14:00+23зюз2345100 0.3 1017794
17:00+18зсз577063 1.6 1018172
20:00+19з325510 0.0 101720
29 июля, чт
чт2923:00+18з22553 0.1 101813
02:00+18з2255100 0.1 101712
05:00+18зюз22565 0.1 101711
08:00+23ссв114454 0.1 1017246
11:00+26всв33345 0.1 10162061
14:00+28вюв223054 0.0 10122808
17:00+21з6756100 1.9 1014458
20:00+15ссз3580100 8.5 1019204
30 июля, пт
пт3023:00+17в34768 8.9 1018266
02:00+15з118671 0.0 101933
05:00+15з018176 0.0 101811
08:00+19всв22624 0.0 1019361
11:00+24юв34442 0.0 10181370
14:00+25ююз663882 0.1 10172125
17:00+25юз243973 0.1 10151578
20:00+18зюз456519 0.4 1018135
31 июля, сб
сб3123:00+18з2364100 0.4 102074
02:00+18з116516 0.3 101915
05:00+17сз116522 0.3 101911
08:00+21юв22505 0.0 1020348
11:00+25вюв333610 0.0 10182087
14:00+26ююв343139 0.0 10162455
17:00+24з663919 0.1 1016777
20:00+20зюз56611 0.0 1018138